THORAD AGENA D DEB, 4686

Orbit data source: Space-Track

THORAD AGENA D DEB, 4686 is space debris in SSO originally from a launch on Wed, 08 Apr 1970 UTC launched from the Air Force Western Test Range (AFWTR). Debris objects in space refer to the collection of defunct objects orbiting the Earth. Examples of debris include non-operational satellites, rocket bodies, and fragments generated from explosions, collisions, or faulty payload assembly.

Loading next visibility...
Identifier
4686, 1970-025BK
Orbit
SSO
Country
Flag of USUS
Related business
Manufacturer
Unknown
Mission
Spacecraft
Bus & Motor
Unknown
Mass
Unknown
Launch date (UTC)
1970-04-08 (56 years ago)
Launch vehicle
Unknown
Launch site
Air Force Western Test Range (AFWTR)
Object type
Payload
Rocket body
Debris
Shape & HBR
Unknown shape, 0.1 m
Radar Cross Section
Small (<0.1 m²)

Expand to show TLE details & history
Last TLE update: 1 day ago

TLE from 1 day ago
0 THORAD AGENA D DEB
1 04686U 70025BK  25348.81061836  .00000572  00000-0  85805-3 0  9996
2 04686 100.2016  80.4926 0037073 202.7368 282.8526 13.57742502745682
Epoch: 2025-12-14T19:27Z
TLE epoch observation values (Epoch: 2025-12-14T19:27:17.426Z)
Latitude
53.6585°
Longitude
-100.96389°
Altitude
1,046.572 km
Speed
7.337 km/s
True Right ascension
18h 18m 18s
True Declination
53° 30' 02"
Sunlit
Object was in daylight at epoch
Visualization orbit readout
Latitude
Unknown
Longitude
Unknown
Altitude
Unknown
Speed
Unknown
Apparent Right ascension
Unknown
Apparent Declination
Unknown
Sunlit
N/A
Visualization observer readout
Local Sidereal Time
23:41:40
Azimuth
Unknown
Elevation
Unknown
Doppler factor
Unknown
Orbital elements
Apogee altitude
1,068.731 km
Perigee altitude
1,013.719 km
Semi-major axis
7,419.362 km
Eccentricity
0.00371
Inclination
100.2016°
RAAN
80.4926°
Arg. of periapsis
202.7368°
True anomaly
282.43799°
Mean anomaly
282.8526°
Eccentric anomaly
282.64534°
Mean motion
3.3962 °/min
Orbital period
106 mins
BSTAR
0.00085805
Loading maneuver chart data...
Computing Atmospheric mass density...

Documentation

Showing up to 5 results
|